[[{"header":{"parameterUnit":"m.s-1","parameterCategory":1,"la1":30.2991,"la2":30.254,"lo1":-89.0895,"lo2":-89.0444,"dy":0.0017,"dx":0.0017,"nx":28,"ny":28,"refTime":"2024-04-27T21:00:00:Z","depth":0,"parameterNumber":2,"parameterNumberName":"U-component_of_WINDS"},"data":[0,0,0,0,0,0,0,0,0,0,0,0,0,0,0,0,0,0,0,0,0,0,0,0,0,0,0,0,0,0,0,0,0,0,0,0,0,0,0,0,0,0,0,0,0,0,0,0,0,0,0,0,0,0,0,0,0,0,-7.5044,-7.5046,0,-7.52,-7.5201,-7.5203,-7.5208,-7.5206,-7.5204,-7.5202,-7.5357,-7.5362,-7.5368,0,0,0,0,0,0,0,0,0,0,0,0,0,-7.4749,-7.4755,-7.5044,-7.5046,-7.5048,-7.5199,-7.5201,-7.5204,-7.5208,-7.5206,-7.5204,-7.5201,-7.5355,-7.5361,-7.5369,0,0,0,0,0,0,0,0,0,0,0,0,0,-7.4888,-7.4757,-7.5044,-7.5069,-7.5073,-7.5199,-7.5202,-7.5204,-7.5209,-7.5206,-7.5203,-7.52,-7.5352,-7.5361,-7.5369,-7.548,0,0,-7.5396,-7.54,0,0,0,0,0,0,0,0,-7.488,-7.4899,-7.5063,-7.5067,-7.5072,-7.5182,-7.5154,-7.5296,-7.5209,-7.5157,-7.5202,-7.5199,-7.53,-7.5313,-7.5348,-7.5487,-7.5494,-7.5397,-7.5402,-7.5406,-7.5409,0,0,0,0,0,0,0,-7.4871,-7.4892,-7.5106,-7.5066,-7.5071,-7.5071,-7.5088,-7.5181,-7.5242,-7.5161,-7.5162,-7.518,-7.5302,-7.534,-7.5352,-7.5496,-7.5397,-7.5405,-7.541,-7.5414,-7.5734,-7.5737,0,0,0,0,0,0,-7.4857,-7.4884,-7.5101,-7.511,-7.4967,-7.5079,-7.5098,-7.5149,-7.5241,-7.5253,-7.5183,-7.518,-7.5326,-7.5342,-7.5357,-7.5492,-7.5406,-7.5414,-7.5419,-7.5731,-7.5735,-7.5738,0,0,0,0,0,0,-7.485,-7.4876,-7.5094,-7.4998,-7.5026,-7.5087,-7.5145,-7.5154,-7.5191,-7.5258,-7.5268,-7.521,-7.5325,-7.5345,-7.545,-7.5497,-7.5418,-7.5426,-7.5727,-7.5732,-7.5736,-7.5762,0,0,0,0,0,0,-7.4842,-7.4874,-7.4916,-7.4999,-7.5031,-7.5185,-7.5148,-7.5159,-7.5207,-7.5205,-7.5286,-7.5297,-7.5324,-7.5437,-7.5459,-7.5508,-7.5433,-7.5723,-7.5729,-7.5735,-7.5758,-7.5768,-7.5776,0,0,0,0,0,-7.4831,-7.4917,-7.4919,-7.4945,-7.5086,-7.5188,-7.5206,-7.5237,-7.5211,-7.5254,-7.5297,-7.5294,-7.549,-7.5447,-7.5472,-7.5525,-7.572,-7.5727,-7.5734,-7.5753,-7.5766,-7.5776,0,0,0,0,0,0,-7.4836,-7.4928,-7.4931,-7.5046,-7.5109,-7.5188,-7.5243,-7.5249,-7.5319,-7.5314,-7.5349,-7.5367,-7.5471,-7.5509,-7.546,-7.5637,-7.5602,-7.5614,-7.5607,-7.562,-7.5629,-7.5616,-7.544,0,0,0,0,0,-7.4851,-7.4927,-7.5003,-7.5097,-7.5129,-7.5181,-7.5227,-7.5245,-7.5312,-7.5338,-7.5388,-7.5452,-7.5528,-7.5576,-7.565,-7.5765,-7.5782,-7.5813,-7.5823,-7.583,-7.5839,-7.5902,-7.5917,-7.5762,-7.5762,-7.5762,0,0,-7.4881,-7.4941,-7.4987,-7.5099,-7.5151,-7.5228,-7.5203,-7.5286,-7.5343,-7.535,-7.5452,-7.5492,-7.5565,-7.5675,-7.5726,-7.571,-7.5887,-7.5839,-7.5845,-7.585,-7.5911,-7.5926,-7.5939,-7.5767,-7.5766,-7.5765,0,0,-7.4976,-7.503,-7.5113,-7.5166,-7.5245,-7.528,-7.53,-7.538,-7.5407,-7.5511,-7.5518,-7.5586,-7.5716,-7.5768,-7.5811,-7.5929,-7.5929,-7.5953,-7.6,-7.6061,-7.6073,-7.6084,-7.6124,-7.6138,-7.5963,-7.5963,-7.5963,0,-7.5003,-7.512,-7.5155,-7.5239,-7.5287,-7.5301,-7.5385,-7.5435,-7.5533,-7.5566,-7.5548,-7.5712,-7.5762,-7.5884,-7.5913,-7.5949,-7.5972,-7.5941,-7.6069,-7.608,-7.6091,-7.6129,-7.6144,-7.5965,-7.5964,-7.5964,-7.5964,0,-7.5149,-7.5231,-7.5289,-7.5385,-7.5442,-7.5525,-7.5572,-7.5625,-7.564,-7.5676,-7.5782,-7.5844,-7.5929,-7.5961,-7.5975,-7.6086,-7.6073,-7.6062,-7.6026,-7.6107,-7.6143,-7.6159,-7.5968,-7.5967,-7.5966,-7.5966,0,0,-7.5246,-7.5364,-7.5384,-7.5428,-7.5518,-7.5581,-7.5666,-7.5752,-7.5796,-7.5865,-7.5935,-7.6047,-7.6037,-7.6087,-7.6108,-7.6162,-7.6249,-7.6144,-7.6146,-7.6159,-7.6373,-7.6379,-7.6395,-7.6252,-7.6255,-7.6257,-7.6366,0,-7.5348,-7.5499,-7.5535,-7.5664,-7.5739,-7.5755,-7.5828,-7.5891,-7.5928,-7.5997,-7.6038,-7.6116,-7.6099,-7.6128,-7.6183,-7.6227,-7.6292,-7.622,-7.6315,-7.6318,-7.6293,-7.6415,-7.6421,-7.652,-7.6381,-7.6383,-7.6385,0,-7.5486,-7.5559,-7.5696,-7.5778,-7.581,-7.5876,-7.5958,-7.6025,-7.6096,-7.612,-7.6177,-7.6193,-7.6281,-7.6245,-7.6365,-7.6316,-7.6357,-7.6385,-7.639,-7.6397,-7.6354,-7.6422,-7.6553,-7.6566,-7.6408,-7.6407,-7.6405,0,-7.554,-7.5674,-7.5773,-7.5811,-7.5908,-7.5954,-7.5996,-7.6066,-7.6116,-7.6188,-7.6221,-7.6302,-7.6345,-7.6408,-7.6445,-7.6416,-7.6563,-7.653,-7.6583,-7.6582,-7.6609,-7.6606,-7.6745,-7.6642,-7.6642,-7.6642,-7.6641,0,-7.5648,-7.573,-7.5799,-7.5859,-7.5952,-7.5993,-7.6084,-7.6127,-7.6189,-7.6257,-7.6277,-7.634,-7.6388,-7.6458,-7.6489,-7.6583,-7.6604,-7.6624,-7.663,-7.662,-7.6617,-7.6645,-7.6637,-7.6646,-7.6645,-7.6644,-7.6643,0,-7.5722,-7.5771,-7.588,-7.5965,-7.5989,-7.6053,-7.6125,-7.6184,-7.6224,-7.6311,-7.6333,-7.6395,-7.6479,-7.6524,-7.6629,-7.6649,-7.6754,-7.6759,-7.673,-7.6732,-7.6782,-7.6775,-7.6941,-7.6964,-7.6848,-7.6849,-7.685,0,-7.5786,-7.585,-7.5943,-7.5991,-7.6035,-7.6112,-7.6164,-7.6208,-7.6261,-7.6349,-7.6397,-7.6483,-7.6553,-7.6687,-7.674,-7.682,-7.6824,-7.6877,-7.6836,-7.6824,-7.6822,-7.6816,-7.6822,-7.6882,-7.6884,-7.6885,-7.6885,0,-7.5893,-7.5915,-7.599,-7.6074,-7.6135,-7.6203,-7.627,-7.6308,-7.6363,-7.6421,-7.6509,-7.6563,-7.6672,-7.6756,-7.6841,-7.6884,-7.6893,-7.6899,-7.6915,-7.6903,-7.6883,-7.6892,-7.6746,-7.6893,-7.6893,-7.6892,-7.6891,-7.6891,-7.5962,-7.602,-7.6095,-7.6177,-7.6233,-7.6296,-7.6356,-7.6404,-7.6478,-7.657,-7.6592,-7.6683,-7.6755,-7.6871,-7.6917,-7.6988,-7.6977,-7.7001,-7.7007,-7.7011,-7.7012,-7.6875,-7.7004,-7.7004,-7.7004,-7.7004,-7.7004,0,-7.6068,-7.6118,-7.6194,-7.6288,-7.6353,-7.636,-7.6435,-7.6488,-7.6569,-7.6636,-7.6706,-7.6806,-7.6889,-7.695,-7.7034,-7.7079,-7.7086,-7.71,-7.7095,-7.7104,-7.7018,-7.6994,-7.7093,-7.7093,-7.7093,-7.7093,-7.7093,-7.7093,-7.6131,-7.6229,-7.626,-7.6386,-7.6435,-7.6525,-7.6568,-7.6625,-7.6679,-7.679,-7.686,-7.69,-7.6965,-7.7054,-7.713,-7.7146,-7.7175,-7.7188,-7.7204,-7.712,-7.711,-7.7101,-7.7079,-7.7195,-7.7195,-7.7284,-7.7285,-7.7286]},{"header":{"parameterUnit":"m.s-1","parameterCategory":1,"la1":30.2991,"la2":30.254,"lo1":-89.0895,"lo2":-89.0444,"dy":0.0017,"dx":0.0017,"nx":28,"ny":28,"refTime":"2024-04-27T21:00:00:Z","depth":0,"parameterNumber":3,"parameterNumberName":"V-component_of_WINDS"},"data":[0,0,0,0,0,0,0,0,0,0,0,0,0,0,0,0,0,0,0,0,0,0,0,0,0,0,0,0,0,0,0,0,0,0,0,0,0,0,0,0,0,0,0,0,0,0,0,0,0,0,0,0,0,0,0,0,0,0,5.9393,5.9395,0,5.9595,5.9597,5.9599,5.9671,5.9671,5.967,5.9669,5.9872,5.9878,5.9884,0,0,0,0,0,0,0,0,0,0,0,0,0,5.9068,5.9074,5.9392,5.9395,5.9397,5.9594,5.9597,5.96,5.9672,5.9671,5.967,5.9669,5.987,5.9877,5.9884,0,0,0,0,0,0,0,0,0,0,0,0,0,5.9233,5.9076,5.9392,5.9457,5.9465,5.9594,5.9597,5.96,5.9672,5.9671,5.967,5.9669,5.9868,5.9876,5.9885,5.9963,0,0,5.9913,5.9917,0,0,0,0,0,0,0,0,5.9224,5.9245,5.9445,5.9453,5.9462,5.9607,5.9557,5.9722,5.9672,5.9593,5.9669,5.9668,5.9784,5.98,5.984,5.9972,5.9981,5.9914,5.9919,5.9923,5.9926,0,0,0,0,0,0,0,5.9212,5.9237,5.9472,5.9448,5.9458,5.9476,5.9498,5.9589,5.9692,5.96,5.9606,5.9629,5.9789,5.9831,5.9846,5.9984,5.9914,5.9922,5.9927,5.9931,6.0193,6.0194,0,0,0,0,0,0,5.919,5.9227,5.9466,5.9478,5.9338,5.9483,5.9508,5.9561,5.9691,5.971,5.963,5.9631,5.9816,5.9835,5.9853,5.9955,5.9923,5.9932,5.9937,6.0191,6.0193,6.0195,0,0,0,0,0,0,5.9183,5.9211,5.9458,5.9354,5.9387,5.949,5.9549,5.9566,5.9609,5.9714,5.9732,5.9654,5.9816,5.984,5.9936,5.9962,5.9936,5.9944,6.019,6.0192,6.0194,6.0156,0,0,0,0,0,0,5.9174,5.9208,5.9238,5.9355,5.9392,5.9537,5.9551,5.9571,5.9625,5.9629,5.9742,5.9759,5.9817,5.9922,5.9945,5.9974,5.9951,6.0188,6.0191,6.0193,6.0155,6.0157,6.0158,0,0,0,0,0,5.9162,5.9218,5.9239,5.9268,5.9433,5.9539,5.956,5.9627,5.9626,5.9658,5.9726,5.9756,5.9956,5.9931,5.9958,5.999,6.0186,6.019,6.0193,6.0155,6.0156,6.0158,0,0,0,0,0,0,5.91,5.9234,5.9259,5.9355,5.9435,5.9551,5.9592,5.9626,5.9707,5.9708,5.9786,5.9811,5.9901,5.9955,5.9925,6.0074,6.0073,6.0082,6.0035,6.0037,6.0038,6.0023,5.9959,0,0,0,0,0,5.9097,5.9173,5.9286,5.936,5.9399,5.9489,5.9537,5.9582,5.9668,5.9702,5.9777,5.9858,5.994,5.9991,6.0072,6.0164,6.019,6.0199,6.0201,6.0201,6.0208,6.0263,6.0269,6.0206,6.0206,6.0206,0,0,5.9093,5.9176,5.9218,5.9349,5.9417,5.9494,5.9517,5.9596,5.9654,5.9713,5.981,5.9868,5.9963,6.0059,6.0104,6.0106,6.0232,6.0206,6.0205,6.0212,6.0267,6.0273,6.0279,6.0208,6.0208,6.0208,0,0,5.9124,5.9194,5.9264,5.9332,5.9435,5.9495,5.9512,5.9624,5.9666,5.9764,5.9811,5.9881,6.0019,6.0086,6.0139,6.02,6.0231,6.0224,6.023,6.0283,6.0288,6.0293,6.0317,6.0324,6.023,6.023,6.023,0,5.9105,5.9224,5.9296,5.9374,5.9431,5.9491,5.9564,5.9626,5.9749,5.9787,5.9789,5.9966,6.0034,6.0148,6.0163,6.0203,6.0225,6.0211,6.0282,6.0288,6.0293,6.0316,6.0325,6.0229,6.0229,6.0229,6.0229,0,5.9196,5.9278,5.9322,5.9443,5.9505,5.9579,5.9663,5.9718,5.9758,5.9818,5.9918,6.0004,6.0104,6.0134,6.0173,6.0254,6.0252,6.0267,6.0268,6.0297,6.032,6.0329,6.0227,6.0227,6.0228,6.0228,0,0,5.9192,5.9354,5.9369,5.9426,5.9546,5.961,5.9688,5.9789,5.9835,5.9918,5.9987,6.0104,6.012,6.0179,6.0227,6.0273,6.0319,6.0283,6.0286,6.0288,6.0416,6.0405,6.0414,6.0341,6.0343,6.0344,6.0408,0,5.924,5.9384,5.9453,5.9567,5.9644,5.9704,5.9773,5.9854,5.9913,5.9987,6.0051,6.0135,6.0148,6.0184,6.0233,6.0303,6.0346,6.0299,6.0405,6.0408,6.038,6.0426,6.0414,6.047,6.0418,6.0419,6.042,0,5.9315,5.9402,5.9523,5.9637,5.9672,5.9733,5.9832,5.9902,5.9996,6.0036,6.0104,6.0151,6.0236,6.0232,6.0351,6.0318,6.0366,6.0407,6.0411,6.0423,6.0416,6.044,6.0489,6.0498,6.0435,6.0434,6.0433,0,5.9302,5.9449,5.9542,5.9588,5.9722,5.9764,5.9822,5.9915,5.9972,6.0058,6.0096,6.0191,6.0242,6.0315,6.0386,6.0376,6.0499,6.05,6.0535,6.0533,6.0558,6.0556,6.0616,6.0587,6.0587,6.0587,6.0587,0,5.9349,5.9422,5.9538,5.9595,5.9679,5.9758,5.9839,5.9901,5.9984,6.0054,6.0111,6.0176,6.0266,6.0342,6.0398,6.049,6.0512,6.0547,6.0562,6.0543,6.0539,6.0575,6.0573,6.0589,6.0589,6.0588,6.0588,0,5.9348,5.9429,5.9534,5.9654,5.9686,5.9743,5.9846,5.9904,5.9967,6.0055,6.0081,6.0179,6.0273,6.0351,6.0473,6.0511,6.0606,6.0623,6.0575,6.0583,6.0614,6.0611,6.07,6.0717,6.0676,6.0676,6.0677,0,5.9373,5.9431,5.9558,5.961,5.9668,5.9751,5.9811,5.9891,5.9951,6.0064,6.0109,6.0207,6.0289,6.0436,6.0517,6.0612,6.0631,6.0657,6.0645,6.0626,6.0633,6.0629,6.0636,6.0657,6.0657,6.0657,6.0657,0,5.9409,5.9448,5.9531,5.9631,5.9701,5.9782,5.9865,5.9904,6.0,6.0065,6.0162,6.0226,6.0353,6.045,6.0554,6.0613,6.0651,6.066,6.0674,6.0655,6.0626,6.0644,6.0578,6.0657,6.0657,6.0657,6.0657,6.0657,5.9424,5.9479,5.9578,5.9671,5.9742,5.9819,5.9881,5.9953,6.0036,6.0146,6.0189,6.0289,6.0384,6.0528,6.0588,6.0667,6.0672,6.0691,6.0696,6.0699,6.0697,6.0613,6.0686,6.0686,6.0686,6.0686,6.0686,0,5.9464,5.9532,5.9616,5.9732,5.9805,5.9837,5.9932,5.9991,6.0078,6.0165,6.0246,6.0359,6.0454,6.0545,6.0645,6.0691,6.0711,6.0715,6.0712,6.0726,6.0686,6.0666,6.0697,6.0697,6.0697,6.0697,6.0697,6.0697,5.9494,5.959,5.964,5.9773,5.9841,5.994,5.9992,6.0064,6.0133,6.0257,6.0338,6.0397,6.0486,6.0593,6.0682,6.0707,6.0741,6.074,6.0769,6.073,6.0728,6.0726,6.0707,6.0746,6.0746,6.0802,6.0802,6.0803]}]]